TimeEDT,TemperatureF,Dew PointF,Humidity,Sea Level PressureIn,VisibilityMPH,Wind Direction,Wind SpeedMPH,Gust SpeedMPH,PrecipitationIn,Events,Conditions,WindDirDegrees,DateUTC
12:00 AM,80.6,73.4,79,30.10,6.2,East,3.5,-,N/A,,Mostly Cloudy,90,2013-08-25 04:00:00
1:00 AM,80.6,73.4,79,30.08,6.2,Variable,2.3,-,N/A,,Mostly Cloudy,0,2013-08-25 05:00:00
2:00 AM,80.6,75.2,84,30.05,6.2,Variable,2.3,-,N/A,,Scattered Clouds,0,2013-08-25 06:00:00
3:00 AM,80.6,75.2,84,30.04,6.2,Calm,Calm,-,N/A,,Scattered Clouds,0,2013-08-25 07:00:00
4:00 AM,80.6,75.2,84,30.04,6.2,Calm,Calm,-,N/A,,Scattered Clouds,0,2013-08-25 08:00:00
5:00 AM,81,76,82,30.05,9,Calm,Calm,,,,Scattered Clouds,,2013-08-25 09:00:00
5:00 AM,80.6,77.0,89,30.05,6.2,Calm,Calm,-,N/A,,Scattered Clouds,0,2013-08-25 09:00:00
6:00 AM,80.6,75.2,84,30.06,6.2,East,3.5,-,N/A,,Scattered Clouds,90,2013-08-25 10:00:00
7:00 AM,80.6,75.2,84,30.08,6.2,Variable,1.2,-,N/A,,Mostly Cloudy,0,2013-08-25 11:00:00
8:00 AM,83,77,78,30.09,9,SE,2.3,,,Rain,Light Rain Showers,130,2013-08-25 12:00:00
8:00 AM,82.4,77.0,84,30.09,6.2,SE,2.3,-,N/A,Rain,Light Rain Showers,130,2013-08-25 12:00:00
9:00 AM,84.2,75.2,74,30.10,6.2,East,2.3,-,N/A,,Mostly Cloudy,90,2013-08-25 13:00:00
10:00 AM,84.2,77.0,79,30.11,6.2,ESE,2.3,-,N/A,,Scattered Clouds,110,2013-08-25 14:00:00
11:00 AM,89,77,61,30.12,9,ESE,4.6,,,,Partly Cloudy,110,2013-08-25 15:00:00
11:00 AM,87.8,77.0,70,30.11,6.2,ESE,4.6,-,N/A,,Mostly Cloudy,110,2013-08-25 15:00:00
12:00 PM,86.0,73.4,66,30.11,6.2,East,5.8,-,N/A,,Mostly Cloudy,90,2013-08-25 16:00:00
1:00 PM,87.8,73.4,62,30.11,6.2,ENE,5.8,-,N/A,,Mostly Cloudy,70,2013-08-25 17:00:00
2:00 PM,88,76,59,30.10,8,NE,5.8,,,,Partly Cloudy,40,2013-08-25 18:00:00
2:00 PM,87.8,75.2,66,30.09,6.2,NE,5.8,-,N/A,,Mostly Cloudy,40,2013-08-25 18:00:00
2:05 PM,84.2,73.4,70,30.11,6.2,West,8.1,-,N/A,Thunderstorm,Thunderstorm,270,2013-08-25 18:05:00
2:35 PM,82.4,73.4,74,30.09,6.2,West,3.5,-,N/A,,Mostly Cloudy,260,2013-08-25 18:35:00
3:00 PM,82.4,73.4,74,30.08,6.2,WSW,3.5,-,N/A,Rain,Light Rain Showers,240,2013-08-25 19:00:00
3:35 PM,80.6,73.4,79,30.08,-9999.0,WSW,5.8,-,N/A,Rain-Thunderstorm,Thunderstorms and Rain,240,2013-08-25 19:35:00
4:00 PM,80.6,73.4,79,30.07,-9999.0,WSW,6.9,-,N/A,Rain-Thunderstorm,Thunderstorms and Rain,240,2013-08-25 20:00:00
5:00 PM,82,78,84,30.07,7,ESE,3.5,,,Rain,Light Rain,110,2013-08-25 21:00:00
5:00 PM,82.4,78.8,89,30.07,6.2,ESE,3.5,-,N/A,Rain,Light Rain Showers,110,2013-08-25 21:00:00
6:00 PM,84.2,75.2,74,30.05,6.2,ESE,3.5,-,N/A,,Mostly Cloudy,110,2013-08-25 22:00:00
7:00 PM,84.2,75.2,74,30.04,6.2,East,5.8,-,N/A,,Mostly Cloudy,90,2013-08-25 23:00:00
8:00 PM,84,77,73,30.07,9,ENE,4.6,,,,Partly Cloudy,60,2013-08-26 00:00:00
8:00 PM,84.2,77.0,79,30.06,6.2,ENE,4.6,-,N/A,,Mostly Cloudy,60,2013-08-26 00:00:00
9:00 PM,82.4,75.2,79,30.09,6.2,East,5.8,-,N/A,,Mostly Cloudy,90,2013-08-26 01:00:00
10:00 PM,82.4,75.2,79,30.10,6.2,Variable,2.3,-,N/A,,Mostly Cloudy,0,2013-08-26 02:00:00
11:00 PM,82,77,81,30.12,9,East,6.9,,,Rain,Light Rain Showers,90,2013-08-26 03:00:00
11:00 PM,82.4,77.0,84,30.12,6.2,East,6.9,-,N/A,Rain,Light Rain Showers,90,2013-08-26 03:00:00